[[{"header":{"parameterUnit":"m.s-1","parameterCategory":1,"la1":30.2991,"la2":30.254,"lo1":-89.0895,"lo2":-89.0444,"dy":0.0017,"dx":0.0017,"nx":28,"ny":28,"refTime":"2025-02-28T09:00:00:Z","depth":0,"parameterNumber":2,"parameterNumberName":"U-component_of_WINDS"},"data":[0,0,0,0,0,0,0,0,0,0,0,0,0,0,0,0,0,0,0,0,0,0,0,0,0,0,0,0,0,0,0,0,0,0,0,0,0,0,0,0,0,0,0,0,0,0,0,0,0,0,0,0,0,0,0,0,0,0,1.3946,1.3946,0,1.3977,1.3978,1.3978,1.3993,1.3993,1.3993,1.3993,1.4024,1.4025,1.4026,0,0,0,0,0,0,0,0,0,0,0,0,0,1.3899,1.39,1.3946,1.3946,1.3946,1.3977,1.3978,1.3978,1.3993,1.3993,1.3993,1.3993,1.4024,1.4025,1.4026,0,0,0,0,0,0,0,0,0,0,0,0,0,1.3924,1.39,1.3946,1.3958,1.3959,1.3977,1.3978,1.3978,1.3993,1.3993,1.3993,1.3993,1.4024,1.4025,1.4026,1.4034,0,0,1.403,1.4031,0,0,0,0,0,0,0,0,1.3922,1.3925,1.3956,1.3957,1.3959,1.3981,1.3972,1.3997,1.3993,1.398,1.3993,1.3993,1.401,1.4012,1.4018,1.4035,1.4036,1.403,1.4031,1.4031,1.4032,0,0,0,0,0,0,0,1.392,1.3924,1.3958,1.3956,1.3958,1.3962,1.3965,1.3977,1.3995,1.3982,1.3983,1.3986,1.4011,1.4017,1.4019,1.4037,1.403,1.4031,1.4032,1.4032,1.4063,1.4063,0,0,0,0,0,0,1.3917,1.3922,1.3957,1.3959,1.394,1.3963,1.3967,1.3974,1.3995,1.3998,1.3986,1.3987,1.4015,1.4018,1.402,1.4032,1.4031,1.4033,1.4033,1.4063,1.4063,1.4063,0,0,0,0,0,0,1.3916,1.392,1.3956,1.3941,1.3946,1.3963,1.3972,1.3975,1.3981,1.3998,1.4001,1.3989,1.4015,1.4018,1.4031,1.4033,1.4033,1.4034,1.4063,1.4063,1.4063,1.4054,0,0,0,0,0,0,1.3914,1.3919,1.3922,1.3941,1.3947,1.3966,1.3972,1.3975,1.3983,1.3984,1.4002,1.4005,1.4015,1.4029,1.4032,1.4035,1.4035,1.4063,1.4063,1.4063,1.4054,1.4053,1.4053,0,0,0,0,0,1.3913,1.3917,1.3922,1.3926,1.3951,1.3966,1.3969,1.3981,1.3983,1.3987,1.3998,1.4004,1.4032,1.403,1.4034,1.4037,1.4063,1.4063,1.4063,1.4054,1.4053,1.4053,0,0,0,0,0,0,1.3897,1.392,1.3926,1.3937,1.3949,1.3968,1.3973,1.398,1.3992,1.3992,1.4007,1.401,1.4022,1.403,1.4028,1.4046,1.4048,1.4049,1.404,1.4039,1.4039,1.4037,1.4036,0,0,0,0,0,1.3895,1.3906,1.3925,1.3933,1.3939,1.3955,1.3962,1.397,1.3984,1.3989,1.4001,1.4014,1.4026,1.4033,1.4044,1.4055,1.406,1.4059,1.4059,1.4058,1.4059,1.4067,1.4067,1.4064,1.4064,1.4064,0,0,1.3891,1.3905,1.3911,1.393,1.3941,1.3952,1.3959,1.397,1.3978,1.399,1.4003,1.4013,1.4028,1.404,1.4046,1.4047,1.4061,1.4058,1.4058,1.4059,1.4067,1.4067,1.4068,1.4064,1.4064,1.4064,0,0,1.3889,1.39,1.3909,1.392,1.3937,1.3948,1.395,1.3968,1.3975,1.3989,1.3999,1.4008,1.4028,1.4039,1.4047,1.4051,1.4058,1.4054,1.4052,1.406,1.406,1.406,1.4063,1.4063,1.4055,1.4055,1.4055,0,1.3882,1.3899,1.3913,1.3924,1.3932,1.3945,1.3954,1.3964,1.3983,1.3989,1.3991,1.4017,1.4028,1.4043,1.4045,1.405,1.4054,1.4052,1.4059,1.4059,1.406,1.4062,1.4063,1.4054,1.4054,1.4054,1.4055,0,1.389,1.3902,1.3907,1.3926,1.3936,1.3946,1.3961,1.3969,1.3977,1.3987,1.4001,1.4015,1.4031,1.4035,1.4042,1.4052,1.4052,1.4056,1.4059,1.4059,1.4062,1.4063,1.4054,1.4054,1.4054,1.4054,0,0,1.3879,1.3907,1.3909,1.3919,1.3939,1.3948,1.3959,1.3975,1.3982,1.3995,1.4005,1.4022,1.4026,1.4035,1.4044,1.405,1.4055,1.4054,1.4054,1.4054,1.4067,1.4065,1.4066,1.4059,1.4059,1.4059,1.4066,0,1.3881,1.3901,1.3915,1.393,1.3942,1.3955,1.3964,1.3978,1.3988,1.4,1.4011,1.4023,1.4028,1.4033,1.404,1.4053,1.4057,1.4052,1.4069,1.4069,1.4066,1.4067,1.4064,1.407,1.4068,1.4068,1.4068,0,1.3885,1.39,1.3917,1.3937,1.3942,1.3951,1.3967,1.3978,1.3994,1.4001,1.4012,1.4021,1.4034,1.4036,1.4053,1.405,1.4057,1.4064,1.4065,1.4067,1.4069,1.407,1.4072,1.4073,1.4069,1.4069,1.4069,0,1.3877,1.39,1.3914,1.3922,1.3945,1.3951,1.3962,1.3977,1.3987,1.4001,1.4007,1.4022,1.4031,1.4042,1.4056,1.4055,1.4073,1.4075,1.4079,1.4079,1.4083,1.4082,1.4087,1.4086,1.4086,1.4086,1.4086,0,1.3878,1.3888,1.3911,1.3919,1.3931,1.3947,1.3958,1.3969,1.3984,1.3995,1.4006,1.4016,1.4033,1.4045,1.4055,1.4069,1.4073,1.4079,1.4082,1.4079,1.4078,1.4084,1.4085,1.4087,1.4087,1.4086,1.4086,0,1.3871,1.3886,1.3902,1.3924,1.393,1.3938,1.3957,1.3966,1.3977,1.3991,1.3995,1.4013,1.4028,1.4043,1.4062,1.407,1.4084,1.4087,1.4079,1.408,1.4085,1.4084,1.4093,1.4096,1.4093,1.4093,1.4093,0,1.3871,1.3879,1.3903,1.3911,1.3922,1.3935,1.3945,1.3961,1.3971,1.399,1.3997,1.4013,1.4027,1.4051,1.4065,1.4081,1.4085,1.4087,1.4087,1.4084,1.4086,1.4086,1.4087,1.4087,1.4087,1.4087,1.4087,0,1.387,1.3878,1.3892,1.3909,1.3921,1.3935,1.395,1.3956,1.3974,1.3985,1.4001,1.4012,1.4033,1.4049,1.4067,1.4077,1.4085,1.4087,1.4089,1.4086,1.4081,1.4085,1.4079,1.4086,1.4086,1.4087,1.4087,1.4087,1.3867,1.3876,1.3894,1.391,1.3923,1.3937,1.3947,1.396,1.3974,1.3993,1.4001,1.4018,1.4035,1.4059,1.407,1.4083,1.4085,1.4088,1.4088,1.4089,1.4089,1.4079,1.4086,1.4086,1.4086,1.4086,1.4086,0,1.3868,1.3881,1.3895,1.3916,1.3928,1.3936,1.3952,1.3963,1.3977,1.3993,1.4007,1.4026,1.4042,1.4058,1.4076,1.4083,1.4087,1.4087,1.4087,1.409,1.4086,1.4083,1.4084,1.4084,1.4084,1.4084,1.4084,1.4084,1.387,1.3885,1.3895,1.3918,1.393,1.3948,1.3957,1.397,1.3982,1.4003,1.4017,1.4028,1.4044,1.4063,1.4078,1.4083,1.4089,1.4088,1.4094,1.409,1.409,1.409,1.4087,1.4089,1.4089,1.4097,1.4097,1.4097]},{"header":{"parameterUnit":"m.s-1","parameterCategory":1,"la1":30.2991,"la2":30.254,"lo1":-89.0895,"lo2":-89.0444,"dy":0.0017,"dx":0.0017,"nx":28,"ny":28,"refTime":"2025-02-28T09:00:00:Z","depth":0,"parameterNumber":3,"parameterNumberName":"V-component_of_WINDS"},"data":[0,0,0,0,0,0,0,0,0,0,0,0,0,0,0,0,0,0,0,0,0,0,0,0,0,0,0,0,0,0,0,0,0,0,0,0,0,0,0,0,0,0,0,0,0,0,0,0,0,0,0,0,0,0,0,0,0,0,0.3883,0.3884,0,0.3985,0.3986,0.3987,0.3961,0.3959,0.3957,0.3955,0.4058,0.4063,0.4067,0,0,0,0,0,0,0,0,0,0,0,0,0,0.3663,0.3667,0.3883,0.3884,0.3886,0.3984,0.3986,0.3987,0.3961,0.3959,0.3957,0.3954,0.4057,0.4062,0.4068,0,0,0,0,0,0,0,0,0,0,0,0,0,0.3761,0.3669,0.3883,0.3885,0.3886,0.3984,0.3986,0.3988,0.3962,0.3959,0.3956,0.3953,0.4055,0.4062,0.4068,0.4171,0,0,0.4089,0.4092,0,0,0,0,0,0,0,0,0.3755,0.3769,0.3883,0.3885,0.3886,0.3957,0.3946,0.4049,0.3963,0.3933,0.3955,0.3952,0.4027,0.4036,0.4061,0.4176,0.418,0.409,0.4094,0.4097,0.4099,0,0,0,0,0,0,0,0.3749,0.3764,0.3923,0.3885,0.3887,0.3879,0.389,0.3965,0.3995,0.3935,0.3934,0.3946,0.4027,0.4055,0.4064,0.4182,0.409,0.4096,0.41,0.4103,0.4379,0.4382,0,0,0,0,0,0,0.3741,0.3759,0.392,0.3926,0.3812,0.3885,0.3897,0.3937,0.3995,0.4,0.3949,0.3945,0.4045,0.4056,0.4067,0.4187,0.4097,0.4104,0.4108,0.4376,0.438,0.4383,0,0,0,0,0,0,0.3736,0.3756,0.3916,0.3842,0.3862,0.3892,0.3938,0.3941,0.3969,0.4005,0.401,0.3972,0.4043,0.4057,0.4144,0.4191,0.4107,0.4113,0.4372,0.4377,0.4382,0.443,0,0,0,0,0,0,0.373,0.3754,0.3795,0.3843,0.3866,0.3993,0.3941,0.3945,0.3981,0.3976,0.4028,0.4033,0.4041,0.4134,0.4151,0.4199,0.4118,0.4368,0.4374,0.438,0.4425,0.4436,0.4446,0,0,0,0,0,0.3722,0.3805,0.3797,0.3816,0.3917,0.3995,0.4008,0.4016,0.3985,0.4024,0.4047,0.4031,0.4183,0.4143,0.4162,0.4212,0.4365,0.4373,0.438,0.442,0.4434,0.4446,0,0,0,0,0,0,0.3762,0.3812,0.3803,0.3904,0.3946,0.3991,0.4042,0.4032,0.4083,0.4077,0.4084,0.4096,0.4183,0.4207,0.4161,0.4312,0.4269,0.4281,0.4293,0.4307,0.4318,0.4309,0.4124,0,0,0,0,0,0.3783,0.3842,0.3882,0.3968,0.3989,0.4012,0.4046,0.4048,0.4091,0.4109,0.4138,0.4179,0.4235,0.4273,0.4327,0.4428,0.4437,0.4472,0.4482,0.4491,0.45,0.4551,0.4565,0.4407,0.4407,0.4407,0,0,0.3826,0.386,0.3898,0.3977,0.4009,0.4069,0.4027,0.4093,0.4137,0.4119,0.4201,0.4224,0.427,0.4363,0.4406,0.4385,0.4546,0.45,0.4507,0.4511,0.456,0.4574,0.4588,0.4412,0.4411,0.441,0,0,0.3934,0.3968,0.404,0.4073,0.4122,0.4136,0.4153,0.4199,0.4213,0.4296,0.4282,0.4334,0.4432,0.4464,0.4494,0.461,0.4596,0.4627,0.4683,0.4732,0.4744,0.4755,0.4793,0.4807,0.4637,0.4637,0.4637,0,0.3981,0.4072,0.4079,0.4145,0.4179,0.4164,0.4236,0.4267,0.4331,0.4354,0.433,0.445,0.4481,0.4579,0.4607,0.4632,0.465,0.4621,0.4742,0.4753,0.4764,0.48,0.4814,0.464,0.464,0.4639,0.4639,0,0.4126,0.4188,0.4241,0.4302,0.4341,0.4411,0.4426,0.4465,0.4463,0.4478,0.456,0.4596,0.4655,0.4679,0.4679,0.4776,0.4761,0.474,0.4697,0.4782,0.4816,0.483,0.4645,0.4644,0.4643,0.4642,0,0,0.4264,0.4325,0.4344,0.4369,0.442,0.4468,0.4535,0.4592,0.4623,0.4667,0.4721,0.4803,0.4782,0.4815,0.4818,0.4861,0.4946,0.4834,0.4835,0.4851,0.505,0.5064,0.5081,0.4937,0.494,0.4942,0.5045,0,0.4374,0.4492,0.4498,0.4604,0.466,0.4645,0.4702,0.4738,0.4754,0.4802,0.4819,0.4875,0.4846,0.4865,0.4907,0.4927,0.4986,0.492,0.4985,0.4987,0.4972,0.5099,0.5115,0.5211,0.5059,0.5061,0.5063,0,0.452,0.4566,0.4677,0.4716,0.4739,0.4791,0.4842,0.4889,0.4928,0.4936,0.4971,0.4967,0.5032,0.4988,0.5076,0.5031,0.5058,0.5071,0.5075,0.5079,0.5029,0.5104,0.5242,0.5255,0.5085,0.5083,0.5081,0,0.4604,0.4695,0.4772,0.4795,0.4843,0.4879,0.49,0.4937,0.4969,0.5014,0.5034,0.5085,0.5113,0.5152,0.516,0.5127,0.5247,0.5204,0.5253,0.5252,0.5278,0.5276,0.5419,0.5299,0.5299,0.5299,0.5299,0,0.4726,0.4794,0.481,0.4858,0.4932,0.4937,0.501,0.5029,0.5061,0.5109,0.51,0.5146,0.5155,0.5202,0.5209,0.5278,0.5292,0.5298,0.5299,0.5298,0.5296,0.5314,0.5307,0.5303,0.5302,0.5301,0.53,0,0.4833,0.4848,0.493,0.4968,0.4979,0.5031,0.5063,0.5107,0.512,0.5181,0.5196,0.5217,0.5271,0.5283,0.5349,0.5353,0.5434,0.543,0.5421,0.542,0.5466,0.5461,0.5624,0.5644,0.5514,0.5515,0.5516,0,0.4909,0.496,0.5003,0.5034,0.5057,0.5109,0.5141,0.5148,0.5181,0.5228,0.5265,0.5318,0.5361,0.5448,0.5468,0.5516,0.5511,0.5565,0.5518,0.5514,0.5508,0.5504,0.5507,0.5573,0.5575,0.5576,0.5577,0,0.504,0.5044,0.5091,0.514,0.5178,0.5217,0.5254,0.528,0.5291,0.5329,0.5384,0.5417,0.5481,0.5533,0.5581,0.5601,0.559,0.5591,0.5604,0.5603,0.5594,0.5596,0.5442,0.5587,0.5586,0.5585,0.5585,0.5584,0.5132,0.5175,0.5211,0.5262,0.529,0.5324,0.5365,0.5383,0.5429,0.5482,0.5482,0.5541,0.5575,0.5638,0.5661,0.5706,0.5689,0.5709,0.5714,0.5718,0.572,0.5589,0.5715,0.5715,0.5714,0.5714,0.5714,0,0.526,0.5281,0.5329,0.5379,0.5419,0.5405,0.5444,0.5477,0.5529,0.5562,0.5603,0.5664,0.5713,0.5735,0.5783,0.5814,0.581,0.5826,0.5823,0.5827,0.5735,0.5717,0.5829,0.5829,0.5828,0.5828,0.5828,0.5828,0.5331,0.5402,0.5409,0.5492,0.5513,0.557,0.5593,0.5622,0.5648,0.5716,0.5757,0.5771,0.5798,0.5847,0.589,0.5895,0.5912,0.593,0.5933,0.5846,0.5834,0.5823,0.5806,0.5934,0.5935,0.6021,0.6021,0.6022]}]]